Slayton, MN

7:21 AM CDT on July 22, 2017 (GMT -0500)
Slayton

Weather History for KDVP - May, 2013

Change the Weather History Date:

Sunday, May 12, 2013

  Actual Average (KOTG) Record (KOTG)
Temperature  
Mean Temperature 44 °F -  
Max Temperature 59 °F 64 °F 81 °F (1991)
Min Temperature 29 °F 43 °F 28 °F (2013)
Degree Days  
Heating Degree Days 21    
Moisture  
Dew Point 19 °F    
Average Humidity 41    
Maximum Humidity 74    
Minimum Humidity 18    
Precipitation  
Precipitation 0.00 in - - ()
Sea Level Pressure  
Sea Level Pressure 30.20 in    
Wind  
Wind Speed 8 mph (WNW)    
Max Wind Speed 14 mph    
Max Gust Speed 20 mph    
Visibility 10 miles    
Events      
Averages and records for this station are not official NWS values.
T = Trace of Precipitation, MM = Missing Value Source: NWS Daily Summary

Daily Weather History Graph

Daily Weather History Graph

Search for Another Location

Airport or City:

Trip Planner

Search our weather history database for the weather conditions in past years. The results will help you decide how hot, cold, wet, or windy it might be!

Date:

Astronomy

May. 12, 2013 Rise Set
Actual Time 6:00 AM CDT 8:39 PM CDT
Civil Twilight 5:27 AM CDT 9:12 PM CDT
Nautical Twilight 4:45 AM CDT 9:54 PM CDT
Astronomical Twilight 3:58 AM CDT 10:42 PM CDT
Moon 7:54 AM CDT (5/12) 11:08 PM CDT (5/12)
Length of Visible Light 15h 45m
Length of Day
14h 39m
Waxing Crescent, 7% of the Moon is Illuminated
May 12
Waxing Crescent
May 17
First Quarter
May 24
Full
May 31
Last Quarter
Jun 8
New

Hourly Weather History & Observations

Time (CDT) Temp. Windchill Dew Point Humidity Pressure Visibility Wind Dir Wind Speed Gust Speed Precip Events Conditions
12:13 AM 34.2 °F 26.8 °F 23.0 °F 64% 30.26 in 10.0 mi NW 9.2 mph - N/A   Clear
12:33 AM 33.3 °F 26.4 °F 23.0 °F 66% 30.26 in 10.0 mi WNW 8.1 mph - N/A   Clear
12:53 AM 32.9 °F 25.9 °F 23.0 °F 67% 30.26 in 10.0 mi WNW 8.1 mph - N/A   Clear
1:12 AM 32.9 °F 25.3 °F 23.0 °F 67% 30.26 in 10.0 mi WNW 9.2 mph - N/A   Clear
1:34 AM 32.4 °F 24.6 °F 23.0 °F 68% 30.26 in 10.0 mi WNW 9.2 mph - N/A   Clear
1:52 AM 32.0 °F 24.2 °F 22.8 °F 69% 30.26 in 10.0 mi WNW 9.2 mph - N/A   Clear
2:13 AM 32.0 °F 24.2 °F 22.6 °F 68% 30.26 in 10.0 mi NW 9.2 mph - N/A   Clear
2:34 AM 31.8 °F 24.6 °F 22.5 °F 68% 30.26 in 10.0 mi WNW 8.1 mph - N/A   Clear
2:53 AM 31.5 °F 24.2 °F 22.5 °F 69% 30.26 in 10.0 mi WNW 8.1 mph - N/A   Clear
3:13 AM 30.2 °F 22.6 °F 22.1 °F 72% 30.25 in 10.0 mi WNW 8.1 mph - N/A   Clear
3:33 AM 29.8 °F 22.2 °F 22.5 °F 74% 30.25 in 10.0 mi WNW 8.1 mph - N/A   Clear
3:53 AM 30.0 °F 23.2 °F 22.3 °F 73% 30.25 in 10.0 mi WNW 6.9 mph - N/A   Clear
4:13 AM 30.0 °F 23.2 °F 22.1 °F 72% 30.25 in 10.0 mi WNW 6.9 mph - N/A   Clear
4:33 AM 29.7 °F 22.8 °F 22.1 °F 73% 30.25 in 10.0 mi West 6.9 mph - N/A   Clear
4:53 AM 30.7 °F 24.9 °F 21.2 °F 68% 30.24 in 10.0 mi WNW 5.8 mph - N/A   Clear
5:14 AM 30.6 °F 23.8 °F 21.0 °F 68% 30.25 in 10.0 mi West 6.9 mph - N/A   Clear
5:33 AM 30.2 °F 22.6 °F 21.4 °F 70% 30.25 in 10.0 mi West 8.1 mph - N/A   Clear
5:54 AM 31.1 °F 23.7 °F 21.0 °F 66% 30.25 in 10.0 mi West 8.1 mph - N/A   Clear
6:14 AM 30.2 °F 22.6 °F 21.2 °F 69% 30.25 in 10.0 mi West 8.1 mph - N/A   Clear
6:33 AM 30.2 °F 24.3 °F 21.4 °F 70% 30.25 in 10.0 mi West 5.8 mph - N/A   Clear
6:53 AM 32.0 °F 27.5 °F 22.5 °F 68% 30.26 in 10.0 mi West 4.6 mph - N/A   Clear
7:13 AM 34.0 °F 28.0 °F 22.5 °F 63% 30.26 in 10.0 mi West 6.9 mph - N/A   Clear
7:33 AM 35.6 °F 30.7 °F 22.1 °F 58% 30.27 in 10.0 mi WNW 5.8 mph - N/A   Clear
7:53 AM 37.2 °F 31.9 °F 21.6 °F 53% 30.26 in 10.0 mi WNW 6.9 mph - N/A   Clear
8:13 AM 38.8 °F 33.8 °F 22.6 °F 52% 30.27 in 10.0 mi WNW 6.9 mph - N/A   Clear
8:33 AM 41.0 °F 35.8 °F 21.6 °F 46% 30.27 in 10.0 mi WNW 8.1 mph - N/A   Clear
8:53 AM 42.4 °F 37.5 °F 19.8 °F 40% 30.27 in 10.0 mi WNW 8.1 mph - N/A   Clear
9:12 AM 43.7 °F 39.7 °F 18.1 °F 36% 30.27 in 10.0 mi NW 6.9 mph - N/A   Clear
9:33 AM 45.3 °F 40.1 °F 18.3 °F 34% 30.27 in 10.0 mi NW 10.4 mph - N/A   Clear
9:53 AM 45.9 °F 40.0 °F 18.0 °F 33% 30.26 in 10.0 mi WNW 12.7 mph - N/A   Clear
10:13 AM 46.8 °F - 17.4 °F 31% 30.26 in 10.0 mi NW 9.2 mph - N/A   Clear
10:33 AM 47.7 °F - 16.7 °F 29% 30.26 in 10.0 mi North 13.8 mph 19.6 mph N/A   Clear
10:54 AM 48.4 °F - 17.1 °F 29% 30.25 in 10.0 mi NNW 10.4 mph 17.3 mph N/A   Clear
11:13 AM 49.1 °F - 16.3 °F 27% 30.25 in 10.0 mi North 12.7 mph 18.4 mph N/A   Clear
11:34 AM 50.4 °F - 16.9 °F 27% 30.26 in 10.0 mi NNW 12.7 mph 18.4 mph N/A   Clear
11:54 AM 50.2 °F - 16.5 °F 26% 30.25 in 10.0 mi NNW 10.4 mph - N/A   Clear
12:13 PM 50.5 °F - 16.0 °F 25% 30.24 in 10.0 mi NW 11.5 mph 19.6 mph N/A   Clear
12:32 PM 51.8 °F - 15.6 °F 24% 30.23 in 10.0 mi North 9.2 mph 16.1 mph N/A   Clear
12:53 PM 52.5 °F - 16.3 °F 24% 30.23 in 10.0 mi NW 9.2 mph - N/A   Clear
1:14 PM 53.1 °F - 15.6 °F 23% 30.22 in 10.0 mi NW 11.5 mph - N/A   Clear
1:33 PM 52.9 °F - 15.8 °F 23% 30.21 in 10.0 mi North 10.4 mph 16.1 mph N/A   Clear
1:53 PM 53.8 °F - 14.4 °F 21% 30.20 in 10.0 mi WNW 11.5 mph 16.1 mph N/A   Clear
2:12 PM 54.5 °F - 14.9 °F 21% 30.20 in 10.0 mi NW 9.2 mph - N/A   Clear
2:33 PM 54.7 °F - 14.5 °F 20% 30.19 in 10.0 mi West 4.6 mph - N/A   Clear
2:53 PM 55.4 °F - 16.2 °F 21% 30.18 in 10.0 mi North 5.8 mph 16.1 mph N/A   Clear
3:13 PM 56.1 °F - 16.2 °F 21% 30.18 in 10.0 mi NNW 9.2 mph - N/A   Clear
3:33 PM 57.2 °F - 15.8 °F 20% 30.17 in 10.0 mi NW 5.8 mph 16.1 mph N/A   Clear
3:52 PM 57.6 °F - 14.9 °F 19% 30.17 in 10.0 mi Calm Calm - N/A   Clear
4:14 PM 58.1 °F - 15.6 °F 19% 30.16 in 10.0 mi West 8.1 mph - N/A   Clear
4:33 PM 58.8 °F - 16.9 °F 19% 30.16 in 10.0 mi NW 11.5 mph 17.3 mph N/A   Clear
4:53 PM 58.6 °F - 16.5 °F 19% 30.15 in 10.0 mi NNW 8.1 mph - N/A   Clear
5:13 PM 59.0 °F - 16.5 °F 19% 30.15 in 10.0 mi NNW 9.2 mph 18.4 mph N/A   Clear
5:32 PM 59.0 °F - 14.9 °F 18% 30.14 in 10.0 mi West 8.1 mph - N/A   Clear
5:53 PM 59.4 °F - 15.3 °F 18% 30.13 in 10.0 mi NW 8.1 mph - N/A   Clear
6:14 PM 59.2 °F - 15.3 °F 18% 30.13 in 10.0 mi WNW 3.5 mph - N/A   Clear
6:33 PM 59.4 °F - 16.2 °F 19% 30.12 in 10.0 mi WNW 11.5 mph - N/A   Clear
6:53 PM 59.2 °F - 15.3 °F 18% 30.12 in 10.0 mi West 10.4 mph - N/A   Clear
7:13 PM 59.0 °F - 15.4 °F 18% 30.12 in 10.0 mi WNW 9.2 mph - N/A   Clear
7:33 PM 58.5 °F - 17.2 °F 20% 30.12 in 10.0 mi West 9.2 mph - N/A   Clear
7:54 PM 57.9 °F - 17.4 °F 21% 30.12 in 10.0 mi West 10.4 mph - N/A   Clear
8:13 PM 56.5 °F - 19.2 °F 23% 30.12 in 10.0 mi West 6.9 mph - N/A   Clear
8:33 PM 54.0 °F - 19.8 °F 26% 30.12 in 10.0 mi WNW 5.8 mph - N/A   Clear
8:53 PM 53.2 °F - 19.4 °F 27% 30.11 in 10.0 mi WNW 3.5 mph - N/A   Clear
9:13 PM 51.1 °F - 21.2 °F 31% 30.11 in 10.0 mi WNW 3.5 mph - N/A   Clear
9:33 PM 50.9 °F - 21.4 °F 31% 30.12 in 10.0 mi NW 3.5 mph - N/A   Clear
9:53 PM 48.0 °F - 22.5 °F 37% 30.12 in 10.0 mi Calm Calm - N/A   Clear
10:13 PM 48.6 °F - 21.0 °F 34% 30.13 in 10.0 mi Calm Calm - N/A   Clear
10:32 PM 46.8 °F - 23.4 °F 40% 30.12 in 10.0 mi Calm Calm - N/A   Clear
10:53 PM 46.6 °F - 21.9 °F 38% 30.11 in 10.0 mi Calm Calm - N/A   Clear
11:13 PM 44.2 °F 42.7 °F 27.5 °F 52% 30.11 in 10.0 mi SE 3.5 mph - N/A   Clear
11:34 PM 44.2 °F 41.8 °F 27.1 °F 51% 30.11 in 10.0 mi ESE 4.6 mph - N/A   Clear
11:53 PM 47.5 °F - 22.8 °F 38% 30.11 in 10.0 mi SSE 5.8 mph - N/A   Clear